Vertical_Velocity
-0 -0 4 2 -4 3 1 -2 0 6 1 7 4 1 15 -2 10 3 2 1 1 5 1 -3 -4 4 -2 -1 8 4 -3 6 6 -14 -0 12 -0 -0 -0 -6 6 4 -5
2 -0 1 4 2 2 2 1 2 2 8 0 4 14 5 6 -4 1 -2 -6 1 -8 -5 -5 -1 7 0 8 0 1 4 8 7 -13 10 -1 5 -2 -1 2 -6 9 -1
1 -0 -2 1 0 -2 -1 0 1 -0 -0 6 8 4 3 -0 8 2 3 2 4 5 4 4 0 1 0 1 3 6 2 1 1 4 6 2 1 1 3 5 -0 6 2
8 1 -2 -0 1 -1 1 -1 0 1 -0 1 2 4 2 5 -2 2 5 7 5 0 3 -0 1 3 1 1 2 1 1 2 6 9 3 -1 -0 6 -2 -5 -3 3 1
7 8 2 1 0 -1 -1 -1 -2 2 4 3 2 2 7 9 4 7 6 3 0 1 0 2 1 -3 1 1 1 1 2 -0 2 -3 10 7 0 -2 -15 4 -5 -7 -0
1 0 7 3 5 2 -1 2 -1 -4 1 5 4 4 4 -1 -1 1 -0 0 1 2 1 -2 -4 -2 -2 -0 -0 -0 3 3 -2 -3 3 -8 2 -6 5 -3 -4 -5 -17
-3 1 -1 3 10 4 1 1 0 1 0 0 1 -1 -2 -2 2 3 4 2 2 3 2 2 1 1 4 2 1 -1 -1 -6 -4 6 -1 -3 1 -4 -1 -0 -1 -3 -1
7 -0 -5 -2 -2 6 5 2 1 2 3 1 -1 1 3 1 -2 0 2 2 2 3 3 3 2 1 1 1 -2 -4 -0 2 3 -3 -8 -5 -4 1 -2 -2 -7 -4 4
0 -5 3 1 -1 1 2 4 2 1 1 2 5 2 2 1 2 2 3 1 4 5 3 2 5 1 2 2 1 -1 -2 -1 -7 3 3 -1 -3 -5 -1 -1 -1 -6 -7
4 -14 -4 -3 -1 1 -2 -1 -0 -0 0 1 1 1 2 2 0 1 4 5 2 5 3 5 5 6 -3 -3 -3 -5 2 -3 -6 -0 0 6 -0 -5 -4 -5 -5 -5 -3
-1 14 -8 2 3 4 3 2 -1 -0 1 2 2 2 2 4 3 5 5 6 7 0 9 6 -1 7 -2 -1 4 -2 2 -4 -5 5 1 -6 -5 -3 0 -0 -1 -2 -3
3 4 2 -2 2 4 6 4 4 6 3 2 2 2 4 3 6 4 7 8 -0 -4 0 -4 -10 7 -2 -0 2 -6 -1 1 -3 -6 -4 -2 -2 -1 -1 -4 -2 -2 1
3 7 -3 3 3 5 3 4 6 1 14 7 6 7 3 -2 5 6 6 -5 4 -3 -4 -8 -13 -8 5 8 3 -4 -0 -1 -10 3 -0 -0 -4 -4 -3 0 -0 -2 2
4 5 6 6 3 2 5 8 3 10 6 -14 26 17 4 9 -3 -9 -8 -5 -6 2 -1 -2 1 -1 -4 1 1 -0 -11 1 3 -1 -1 -3 -4 -4 -1 -1 -5 -10 -11
1 2 4 2 5 2 6 6 7 10 2 -7 -20 -14 -4 3 -7 16 -6 -9 -10 2 -2 -8 -5 6 -1 -8 -6 1 -0 2 -3 -2 -5 -5 -3 -1 -3 -5 -5 -5 -0
-1 0 1 2 3 2 1 -3 5 -0 2 7 4 11 -7 9 -10 5 -0 -2 3 8 -1 -5 -2 -6 -0 -2 7 4 -3 -2 -3 -9 -4 -2 -3 -5 -7 -4 -2 -2 -5
1 2 1 2 3 0 3 2 -12 6 7 -13 5 1 -1 -17 -1 2 12 0 -6 -1 0 -0 -3 -4 2 5 -0 0 -2 -5 -8 -3 -1 -2 -3 -3 -3 -6 -4 -5 -4
1 1 -1 -1 -4 -2 -2 -4 -3 -2 -5 -2 7 -3 -6 8 -6 0 1 0 -3 -3 -2 -4 -1 3 4 -1 2 -3 -4 -3 -1 0 -3 -6 -2 -2 -6 -5 -2 -5 -1
3 2 2 0 1 1 2 -1 -0 1 4 -3 2 -3 -1 -3 -4 -4 -2 1 -1 -0 -1 -0 2 0 1 1 -1 -3 -1 1 -0 -3 -4 -2 -1 -6 -3 -1 -1 1 -2
3 6 2 1 2 -1 -4 -3 -4 -1 0 0 1 -0 1 1 -1 -3 -2 -2 -3 -4 -2 3 0 1 -2 -1 -2 -1 0 -2 -2 -3 -2 -1 -3 -3 -0 -2 -2 -1 -0
-4 1 2 -4 0 -2 -1 -2 -1 -3 -4 -2 -2 -1 1 0 -4 1 0 -4 -3 1 -1 0 -2 -6 1 -1 2 1 -3 -2 -2 -2 -2 -3 -2 1 -2 -1 2 1 1
-0 -2 0 -0 -2 -1 -0 0 1 -2 -3 -2 -3 -2 1 3 2 -1 -1 -0 -0 -2 2 -6 -1 -1 1 3 0 -0 -3 -3 1 -2 -3 1 0 -3 0 3 1 0 -2
-3 -3 1 -0 2 1 0 1 -2 -2 -2 -1 -0 1 4 4 -1 -1 -1 -4 -4 -3 -2 2 0 -2 2 0 0 -1 -3 -0 -2 -3 -0 -2 -3 -0 4 -1 -3 -4 -2
1 0 -0 -1 -0 -1 -1 -1 -1 0 -1 1 2 2 -2 -2 -2 0 -2 -2 -2 -1 -2 -0 -3 2 -1 1 -1 -4 -2 -1 -0 -1 -4 0 -2 3 -1 -0 -1 -1 -3
3 0 -3 -0 -0 -0 -3 -3 -1 0 1 -1 -1 -1 -3 -5 -3 -4 -3 1 1 0 -3 -2 -0 3 4 -0 -3 -2 -0 1 -3 -2 1 0 0 1 1 -1 -3 -2 -1
3 1 0 0 0 1 1 1 -1 -1 -1 -2 -1 -2 -1 -1 -3 1 2 1 -0 -2 -2 2 2 1 -1 -3 1 1 -1 0 1 -0 0 -1 0 2 -3 -2 -2 -1 -1
Height
1390 1394 1398 1401 1407 1410 1413 1414 1417 1418 1420 1423 1427 1434 1436 1446 1454 1462 1469 1478 1484 1489 1493 1500 1505 1509 1511 1515 1518 1518 1518 1519 1516 1514 1516 1515 1512 1510 1509 1508 1507 1504 1503
1388 1392 1396 1400 1403 1408 1411 1414 1416 1419 1423 1426 1429 1431 1437 1443 1449 1460 1465 1474 1479 1485 1490 1495 1499 1504 1507 1510 1511 1512 1512 1512 1510 1508 1508 1505 1504 1501 1501 1500 1499 1496 1493
1385 1389 1393 1397 1401 1405 1410 1414 1417 1419 1423 1426 1430 1434 1437 1442 1449 1457 1464 1472 1478 1482 1487 1491 1495 1498 1501 1503 1504 1504 1505 1503 1502 1501 1499 1496 1495 1494 1494 1492 1491 1490 1485
1384 1387 1390 1395 1399 1403 1408 1413 1417 1420 1424 1427 1431 1435 1440 1445 1452 1458 1465 1470 1474 1479 1483 1487 1490 1492 1494 1496 1497 1497 1496 1495 1493 1490 1490 1489 1487 1486 1486 1485 1483 1483 1479
1387 1387 1389 1394 1398 1403 1408 1412 1417 1421 1425 1428 1432 1436 1441 1446 1452 1457 1463 1467 1471 1475 1478 1481 1483 1484 1487 1488 1488 1487 1486 1486 1486 1485 1485 1482 1482 1480 1480 1477 1473 1475 1473
1385 1389 1392 1394 1398 1401 1406 1410 1415 1420 1425 1428 1430 1435 1439 1444 1450 1456 1460 1463 1467 1471 1473 1475 1476 1477 1478 1478 1478 1479 1480 1480 1481 1479 1482 1479 1478 1475 1476 1472 1469 1466 1465
1380 1387 1393 1397 1399 1401 1404 1409 1413 1417 1421 1426 1430 1434 1438 1443 1448 1453 1456 1459 1462 1465 1467 1468 1469 1470 1471 1472 1474 1475 1476 1478 1476 1477 1476 1477 1473 1474 1472 1468 1465 1464 1462
1377 1383 1389 1395 1400 1403 1405 1406 1411 1416 1420 1424 1429 1433 1437 1441 1446 1450 1454 1456 1458 1459 1461 1462 1463 1465 1467 1469 1470 1472 1475 1473 1473 1469 1473 1471 1473 1471 1469 1465 1463 1462 1461
1372 1381 1388 1392 1396 1400 1403 1406 1410 1415 1419 1423 1427 1431 1435 1439 1443 1446 1449 1451 1453 1454 1456 1458 1461 1462 1465 1467 1468 1470 1468 1472 1474 1472 1469 1468 1467 1468 1466 1464 1461 1456 1451
1369 1377 1384 1389 1394 1398 1402 1407 1410 1414 1418 1421 1425 1429 1432 1435 1439 1442 1444 1446 1448 1449 1453 1456 1461 1460 1462 1465 1466 1467 1468 1467 1472 1473 1471 1468 1466 1466 1463 1460 1458 1455 1450
1367 1371 1379 1385 1390 1396 1400 1404 1408 1411 1415 1419 1422 1425 1429 1432 1434 1437 1439 1440 1443 1447 1452 1456 1460 1459 1461 1463 1462 1464 1467 1467 1471 1471 1468 1467 1466 1465 1462 1458 1456 1453 1450
1367 1372 1374 1382 1388 1392 1395 1399 1403 1406 1409 1413 1416 1419 1424 1429 1433 1438 1441 1442 1445 1449 1453 1457 1462 1463 1457 1464 1462 1464 1466 1467 1468 1468 1468 1466 1464 1463 1460 1458 1455 1453 1450
1366 1370 1374 1379 1384 1389 1391 1395 1399 1402 1406 1407 1414 1416 1420 1426 1434 1438 1443 1445 1449 1450 1456 1459 1460 1463 1469 1463 1460 1464 1466 1466 1467 1469 1465 1463 1463 1462 1460 1457 1453 1451 1448
1365 1366 1366 1374 1378 1383 1387 1391 1395 1398 1404 1414 1406 1414 1417 1424 1431 1438 1445 1451 1448 1451 1454 1459 1460 1462 1469 1467 1464 1464 1466 1467 1466 1464 1465 1464 1464 1462 1459 1453 1448 1446 1444
1363 1366 1368 1374 1379 1383 1388 1393 1396 1401 1405 1410 1427 1430 1438 1431 1438 1438 1440 1449 1449 1455 1451 1459 1462 1462 1463 1467 1466 1464 1465 1465 1465 1465 1465 1464 1463 1460 1456 1452 1448 1444 1441
1367 1370 1373 1377 1382 1387 1392 1398 1408 1413 1419 1424 1426 1430 1430 1445 1438 1443 1444 1449 1455 1458 1455 1460 1465 1467 1468 1467 1467 1464 1461 1465 1464 1466 1467 1464 1461 1457 1454 1451 1447 1443 1438
1371 1373 1377 1382 1386 1391 1396 1402 1404 1421 1427 1433 1436 1438 1443 1445 1448 1451 1450 1450 1454 1461 1460 1463 1466 1468 1469 1466 1465 1464 1462 1464 1464 1467 1465 1463 1461 1458 1453 1450 1446 1441 1437
1377 1379 1383 1388 1394 1399 1405 1410 1415 1419 1425 1432 1437 1436 1444 1445 1446 1453 1455 1456 1456 1461 1465 1467 1469 1469 1466 1467 1465 1464 1464 1464 1465 1465 1464 1464 1461 1456 1453 1449 1445 1439 1434
1384 1386 1390 1394 1399 1402 1407 1413 1420 1425 1429 1431 1433 1439 1445 1447 1451 1454 1457 1459 1461 1464 1466 1468 1468 1469 1469 1467 1465 1465 1466 1465 1465 1464 1464 1463 1459 1456 1452 1448 1442 1438 1432
1391 1393 1395 1400 1404 1409 1415 1420 1425 1429 1432 1436 1440 1444 1447 1450 1453 1456 1459 1461 1463 1466 1469 1469 1467 1469 1469 1468 1467 1466 1466 1465 1465 1464 1463 1462 1459 1455 1449 1445 1441 1435 1429
1401 1404 1406 1409 1414 1419 1423 1426 1430 1433 1437 1441 1445 1449 1452 1453 1454 1457 1457 1462 1465 1465 1467 1469 1467 1471 1471 1469 1467 1466 1466 1465 1464 1463 1463 1461 1457 1453 1449 1444 1440 1435 1429
1409 1412 1415 1417 1421 1424 1427 1430 1434 1437 1441 1446 1449 1451 1453 1455 1456 1457 1459 1462 1465 1467 1467 1469 1470 1472 1471 1469 1467 1465 1465 1465 1464 1462 1461 1458 1455 1451 1446 1442 1438 1433 1426
1415 1417 1419 1421 1425 1428 1431 1435 1438 1443 1446 1450 1452 1454 1455 1455 1457 1460 1461 1463 1465 1468 1469 1470 1470 1472 1471 1468 1466 1464 1464 1464 1462 1460 1459 1455 1452 1448 1444 1440 1435 1430 1425
1420 1422 1424 1426 1430 1433 1436 1439 1443 1447 1450 1453 1454 1455 1456 1458 1460 1461 1463 1464 1466 1467 1469 1469 1470 1471 1468 1464 1463 1463 1463 1462 1461 1458 1456 1452 1449 1446 1443 1439 1434 1429 1424
1425 1425 1429 1432 1434 1437 1439 1443 1446 1449 1452 1454 1456 1457 1459 1461 1463 1464 1465 1465 1466 1466 1468 1469 1469 1467 1464 1462 1462 1461 1461 1459 1457 1455 1453 1450 1448 1444 1440 1436 1432 1428 1424
1429 1431 1435 1437 1440 1443 1445 1447 1450 1452 1454 1455 1457 1459 1461 1462 1463 1465 1465 1465 1465 1465 1467 1467 1465 1463 1461 1460 1459 1458 1457 1455 1453 1452 1450 1447 1445 1442 1438 1434 1431 1426 1423